Hourly Data Report for October 01, 2017

All times are specified in Local Standard Time (LST). Add 1 hour to adjust for Daylight Saving Time where and when it is observed.

VICTORIA GONZALES CS
BRITISH COLUMBIA

48°24'47.896" N
123°19'29.192" W
61.00 m
1018611
71200
WLM

Download Data

Hourly Data (October 2017)
Hourly Data Report for October 1, 2017
Temp Definition
°C
Dew Point Temp Definition
°C
Rel Hum Definition
%
Wind Dir Definition
10's deg

Wind Spd Definition
km/h
Visibility Definition
km
Stn Press Definition
kPa
Hmdx Definition


Wind Chill Definition


Weather Definition


TIME
00:00 11.0 9.6 91 8 2   101.07     LegendNANA
01:00 10.1 9.0 93 32 6   101.08     LegendNANA
02:00 10.0 8.9 93 28 7   101.07     LegendNANA
03:00 9.7 8.4 92 30 7   101.08     LegendNANA
04:00 10.3 7.8 85 34 4   101.10     LegendNANA
05:00 10.6 7.8 83 26 5   101.10     LegendNANA
06:00 10.1 8.0 87 35 4   101.13     LegendNANA
07:00 10.5 7.6 82 27 7   101.17     LegendNANA
08:00 11.1 8.3 83 32 3   101.20     LegendNANA
09:00 12.3 9.4 83 15 4   101.23     LegendNANA
10:00 12.6 10.1 85 21 9   101.22     LegendNANA
11:00 13.0 10.5 85 20 9   101.23     LegendNANA
12:00 12.4 9.6 83 20 9   101.25     LegendNANA
13:00 11.8 9.5 86 20 4   101.25     LegendNANA
14:00 12.9 8.4 74 21 7   101.22     LegendNANA
15:00 13.3 9.7 79 22 12   101.19     LegendNANA
16:00 12.7 9.1 79 24 10   101.19     LegendNANA
17:00 12.0 8.7 81 25 11   101.22     LegendNANA
18:00 11.4 8.2 81 26 11   101.24     LegendNANA
19:00 11.2 8.5 83 25 14   101.25     LegendNANA
20:00 10.8 8.6 87 26 15   101.26     LegendNANA
21:00 10.3 9.0 91 25 14   101.23     LegendNANA
22:00 9.8 8.3 91 26 13   101.21     LegendNANA
23:00 9.8 8.3 91 25 12   101.21     LegendNANA

Notes on Data Quality.

Legend

  • E = Estimated
  • M = Missing
  • NA = Not Available
  • ‡ = Partner data that is not subject to review by the National Climate Archives
Date modified: